Home   Weather   Greensboro   Past weeks

Flag for USA Past Weather in Greensboro, North Carolina, USA — Yesterday and Last 2 Weeks

Now
49 °F

Rain. Fog.


Feels Like: 43 °F
Forecast: 51 / 55 °F
Wind: 16 mph from Northeast

Location: Piedmont Triad International Airport

Current Time: Apr 24, 2017 at 3:50:08 am

Latest Report: Apr 24, 2017 at 3:27 am


Visibility: 2 mi

Pressure: 29.89 "Hg

Humidity: 100%

Dew Point: 49 °F

Location of GreensboroLocation

Past Weather in Greensboro — Graph

°F

Greensboro Temperature Yesterday

Maximum temperature yesterday: 52 °F (at 12:11 am)
Minimum temperature yesterday: 48 °F (at 5:54 am)
Average temperature yesterday: 50 °F

High & Low Weather Summary for the Past Weeks

 TemperatureHumidityPressure
High85 °F (Apr 21, 2:54 pm)100% (Apr 18, 4:09 am)30.38 "Hg (Apr 18, 4:09 am)
Low41 °F (Apr 9, 4:54 am)19% (Apr 9, 2:54 pm)29.76 "Hg (Apr 22, 3:54 pm)
Average65 °F70%30.14 "Hg
* Reported Apr 9 1:54 am — Apr 24 1:54 am, Greensboro, Weather by CustomWeather, © 2017

Note: Actual official high and low records may vary slightly from our data, if they occured in-between our weather recording intervals... More about our weather records

Advertising

Greensboro Weather History for the Previous 24 Hours

Scroll right to see more
 ConditionsComfort  
Time TempWeatherWind HumidityBarometerVisibility
1:54 am
Mon, Apr 24
50 °FLight rain. Fog.14 mph100%29.91 "Hg4 mi
1:33 am50 °FLight rain. Fog.15 mph100%29.93 "Hg3 mi
12:54 am50 °FLight rain. Fog.13 mph100%29.94 "Hg2 mi
11:54 pm
Sun, Apr 23
50 °FFog.17 mph100%29.94 "Hg5 mi
10:54 pm50 °FFog.17 mph100%29.96 "Hg4 mi
9:54 pm49 °FLight rain. Fog.13 mph100%29.97 "Hg5 mi
8:54 pm49 °FRain. Fog.13 mph100%29.97 "Hg5 mi
7:54 pm49 °FLight rain. Fog.17 mph100%29.96 "Hg3 mi
6:54 pm50 °FLow clouds.14 mph96%29.96 "Hg10 mi
5:54 pm49 °FMostly cloudy.16 mph100%29.96 "Hg10 mi
4:54 pm50 °FRain. Fog.16 mph100%29.96 "Hg3 mi
4:31 pm51 °FRain. Fog.14 mph96%29.97 "Hg3 mi
4:13 pm51 °FHeavy rain. Fog.16 mph96%29.98 "Hg2 mi
3:54 pm50 °FRain. Fog.13 mph100%29.97 "Hg3 mi
2:54 pm51 °FRain. Fog.17 mph100%29.97 "Hg2 mi
2:18 pm51 °FRain. Fog.15 mph100%29.99 "Hg2 mi
1:54 pm51 °FRain. Fog.15 mph100%29.99 "Hg3 mi
1:06 pm51 °FLight rain. Fog.16 mph100%30.01 "Hg4 mi
12:29 pm50 °FRain. Fog.12 mph100%30.04 "Hg2 mi
11:54 am51 °FLight rain. Low clouds.13 mph96%30.02 "Hg8 mi
10:54 am50 °FLow clouds.17 mph96%30.02 "Hg10 mi
9:54 am49 °FLight rain. Fog.12 mph100%30.03 "Hg3 mi
8:54 am49 °FLight rain. Low clouds.15 mph97%30.02 "Hg10 mi
7:54 am49 °FLight rain. Low clouds.15 mph97%30.00 "Hg10 mi
6:54 am48 °FLow clouds.14 mph100%29.97 "Hg10 mi
5:54 am48 °FLight rain. Low clouds.12 mph100%29.97 "Hg9 mi
4:54 am50 °FLight rain. Fog.10 mph100%29.96 "Hg6 mi
3:54 am50 °FLow clouds.10 mph100%29.94 "Hg10 mi
Weather by CustomWeather, © 2017

See weather overviewHow to use our weather pages